Fort Wayne, IN

1:41 PM EST on November 23, 2017 (GMT -0500)
Fort Wayne International

Weather History for KFWA - November, 2012

Change the Weather History Date:

Saturday, November 3, 2012

  Actual Average Record
Temperature  
Mean Temperature 37 °F 47 °F  
Max Temperature 44 °F 56 °F 76 °F (1987)
Min Temperature 29 °F 37 °F 13 °F (1951)
Degree Days  
Heating Degree Days 28 18  
Month to date heating degree days 73 54  
Since 1 July heating degree days 640 563  
Cooling Degree Days 0 0  
Month to date cooling degree days 0 0  
Year to date cooling degree days 1108 809  
Moisture  
Dew Point 30 °F    
Average Humidity 75    
Maximum Humidity 92    
Minimum Humidity 57    
Precipitation  
Precipitation 0.00 in 0.09 in 0.64 in (1948)
Month to date precipitation 0.00 0.28  
Year to date precipitation 25.78 32.76  
Snow  
Snow 0.00 in - - ()
Month to date snowfall 0.0  
Snow Depth 0.00 in    
Sea Level Pressure  
Sea Level Pressure 30.18 in    
Wind  
Wind Speed 4 mph (North)    
Max Wind Speed 12 mph    
Max Gust Speed 13 mph    
Visibility 10 miles    
Events      
T = Trace of Precipitation, MM = Missing Value Source: NWS Daily Summary

Daily Weather History Graph

Daily Weather History Graph

Search for Another Location

Airport or City:

Trip Planner

Search our weather history database for the weather conditions in past years. The results will help you decide how hot, cold, wet, or windy it might be!

Date:

Astronomy

Nov. 03, 2012 Rise Set
Actual Time 8:14 AM EDT 6:33 PM EDT
Civil Twilight 7:45 AM EDT 7:02 PM EDT
Nautical Twilight 7:13 AM EDT 7:34 PM EDT
Astronomical Twilight 6:41 AM EDT 8:06 PM EDT
Moon 10:13 PM EDT (11/3) 12:18 PM EDT (11/3)
Length of Visible Light 11h 16m
Length of Day
10h 19m
Waning Gibbous, 80% of the Moon is Illuminated
Nov 3
Waning Gibbous
Nov 6
Last Quarter
Nov 13
New
Nov 20
First Quarter
Nov 28
Full

Hourly Weather History & Observations

Time (EDT) Temp. Windchill Dew Point Humidity Pressure Visibility Wind Dir Wind Speed Gust Speed Precip Events Conditions
12:54 AM 37.0 °F 33.3 °F 32.0 °F 82% 30.13 in 10.0 mi NW 4.6 mph - N/A   Mostly Cloudy
1:54 AM 36.0 °F 33.3 °F 32.0 °F 86% 30.15 in 10.0 mi NW 3.5 mph - N/A   Overcast
2:54 AM 34.0 °F 31.0 °F 30.9 °F 89% 30.15 in 10.0 mi NW 3.5 mph - N/A   Mostly Cloudy
3:54 AM 32.0 °F 26.4 °F 30.0 °F 92% 30.16 in 10.0 mi NNW 5.8 mph - N/A   Scattered Clouds
4:54 AM 32.0 °F 25.6 °F 30.0 °F 92% 30.16 in 10.0 mi NNW 6.9 mph - N/A   Clear
5:54 AM 30.9 °F 26.2 °F 28.9 °F 92% 30.17 in 10.0 mi North 4.6 mph - N/A   Scattered Clouds
6:54 AM 32.0 °F 27.5 °F 28.9 °F 88% 30.17 in 10.0 mi NNE 4.6 mph - N/A   Scattered Clouds
7:54 AM 30.9 °F - 28.0 °F 89% 30.19 in 10.0 mi Calm Calm - N/A   Mostly Cloudy
8:54 AM 30.9 °F - 28.0 °F 89% 30.21 in 10.0 mi Calm Calm - N/A   Mostly Cloudy
9:54 AM 36.0 °F 30.3 °F 30.9 °F 82% 30.22 in 10.0 mi ENE 6.9 mph - N/A   Mostly Cloudy
10:54 AM 37.9 °F 32.7 °F 30.0 °F 73% 30.23 in 10.0 mi ENE 6.9 mph - N/A   Mostly Cloudy
11:54 AM 39.0 °F 34.0 °F 30.0 °F 70% 30.21 in 10.0 mi ENE 6.9 mph - N/A   Mostly Cloudy
12:54 PM 41.0 °F 39.0 °F 30.0 °F 65% 30.21 in 10.0 mi NE 3.5 mph - N/A   Mostly Cloudy
1:54 PM 43.0 °F 40.3 °F 30.9 °F 62% 30.19 in 10.0 mi NE 4.6 mph - N/A   Mostly Cloudy
2:54 PM 43.0 °F 39.5 °F 30.0 °F 60% 30.18 in 10.0 mi North 5.8 mph - N/A   Mostly Cloudy
3:54 PM 44.1 °F 42.5 °F 30.0 °F 58% 30.17 in 10.0 mi NNE 3.5 mph - N/A   Mostly Cloudy
4:54 PM 43.0 °F - 28.9 °F 58% 30.17 in 10.0 mi Calm Calm - N/A   Mostly Cloudy
5:54 PM 42.1 °F - 28.9 °F 60% 30.17 in 10.0 mi Calm Calm - N/A   Mostly Cloudy
6:54 PM 41.0 °F 39.0 °F 30.9 °F 67% 30.18 in 10.0 mi WSW 3.5 mph - N/A   Mostly Cloudy
7:54 PM 41.0 °F - 33.1 °F 73% 30.18 in 10.0 mi Calm Calm - N/A   Mostly Cloudy
8:54 PM 39.0 °F 34.8 °F 32.0 °F 76% 30.19 in 10.0 mi North 5.8 mph - N/A   Overcast
9:54 PM 39.0 °F 36.8 °F 32.0 °F 76% 30.19 in 10.0 mi North 3.5 mph - N/A   Overcast
10:54 PM 37.9 °F 33.5 °F 30.9 °F 76% 30.19 in 10.0 mi North 5.8 mph - N/A   Overcast
11:54 PM 37.0 °F 32.4 °F 30.0 °F 76% 30.20 in 10.0 mi North 5.8 mph - N/A   Mostly Cloudy